When you browse on this site, cookies collect data to enhance your experience and personalize the content and advertising you see.
Visit our Privacy Policy to learn more. By continuing to use the site, you agree to this use of cookies and data.

Hourly Weather Bedford

Today, 4 August, Tuesday

Time Temperature Precipitation Wind Pressure Humidity
00:00 +13°C° 0 mm 1 mps 760 mmHg 78%
01:00 +13°C° 0 mm 1 mps 760 mmHg 79%
02:00 +12°C° 0 mm 1 mps 760 mmHg 79%
03:00 +11°C° 0 mm 0 mps 760 mmHg 80%
04:00 +12°C° 0 mm 1 mps 759 mmHg 79%
05:00 +13°C° 0 mm 1 mps 759 mmHg 77%
06:00 +14°C° 0 mm 1 mps 759 mmHg 75%
07:00 +15°C° 0 mm 2 mps 759 mmHg 71%
08:00 +17°C° 0 mm 3 mps 759 mmHg 67%
09:00 +18°C° 0 mm 4 mps 760 mmHg 62%
10:00 +18°C° 0 mm 4 mps 759 mmHg 65%
11:00 +17°C° 0 mm 4 mps 759 mmHg 68%
12:00 +15°C° 0 mm 4 mps 758 mmHg 70%
13:00 +16°C° 0 mm 5 mps 758 mmHg 65%
14:00 +19°C° 0 mm 6 mps 758 mmHg 60%
15:00 +20°C° 0 mm 6 mps 757 mmHg 55%
16:00 +20°C° 0 mm 6 mps 757 mmHg 59%
17:00 +20°C° 0 mm 6 mps 757 mmHg 63%
18:00 +19°C° 0 mm 6 mps 756 mmHg 67%
19:00 +17°C° 0 mm 6 mps 756 mmHg 71%
20:00 +16°C° 0 mm 6 mps 757 mmHg 76%
21:00 +16°C° 0 mm 6 mps 757 mmHg 80%
22:00 +15°C° 0 mm 6 mps 756 mmHg 82%
23:00 +15°C° 0 mm 6 mps 756 mmHg 84%

Tomorrow, 5 August, Wednesday

Time Temperature Precipitation Wind Pressure Humidity
00:00 +15°C° 0 mm 6 mps 756 mmHg 86%
01:00 +15°C° 0 mm 6 mps 756 mmHg 87%
02:00 +15°C° 0 mm 6 mps 756 mmHg 88%
03:00 +15°C° 0 mm 6 mps 756 mmHg 89%
04:00 +15°C° 0 mm 6 mps 756 mmHg 88%
05:00 +16°C° 0 mm 6 mps 755 mmHg 88%
06:00 +16°C° 0 mm 6 mps 755 mmHg 87%
07:00 +17°C° 0 mm 6 mps 756 mmHg 83%
08:00 +18°C° 0 mm 7 mps 756 mmHg 79%
09:00 +20°C° 0 mm 7 mps 756 mmHg 74%
10:00 +21°C° 0 mm 7 mps 756 mmHg 70%
11:00 +22°C° 0 mm 7 mps 756 mmHg 66%
12:00 +23°C° 0 mm 7 mps 756 mmHg 62%
13:00 +24°C° 0 mm 7 mps 756 mmHg 60%
14:00 +24°C° 0 mm 7 mps 756 mmHg 58%
15:00 +24°C° 0 mm 7 mps 756 mmHg 57%
16:00 +24°C° 0 mm 6 mps 756 mmHg 60%
17:00 +23°C° 0 mm 5 mps 756 mmHg 64%
18:00 +22°C° 0 mm 5 mps 756 mmHg 67%
19:00 +21°C° 0 mm 5 mps 756 mmHg 71%
20:00 +20°C° 0 mm 5 mps 756 mmHg 76%
21:00 +19°C° 0 mm 4 mps 757 mmHg 80%
22:00 +19°C° 0 mm 5 mps 757 mmHg 82%
23:00 +19°C° 0 mm 5 mps 757 mmHg 84%

Day after tomorrow, 6 August, Thursday

Time Temperature Precipitation Wind Pressure Humidity
00:00 +17°C° 0 mm 5 mps 757 mmHg 86%
01:00 +17°C° 0 mm 5 mps 757 mmHg 87%
02:00 +18°C° 0 mm 4 mps 757 mmHg 88%
03:00 +18°C° 0 mm 4 mps 758 mmHg 89%
04:00 +18°C° 0 mm 4 mps 758 mmHg 89%
05:00 +18°C° 0 mm 4 mps 758 mmHg 89%
06:00 +18°C° 0 mm 4 mps 758 mmHg 89%
07:00 +19°C° 0 mm 3 mps 758 mmHg 85%
08:00 +20°C° 0 mm 3 mps 758 mmHg 81%
09:00 +21°C° 0 mm 3 mps 759 mmHg 77%
10:00 +24°C° 0 mm 3 mps 759 mmHg 68%
11:00 +26°C° 0 mm 4 mps 759 mmHg 60%
12:00 +27°C° 0 mm 4 mps 759 mmHg 52%
13:00 +28°C° 0 mm 4 mps 759 mmHg 49%
14:00 +29°C° 0 mm 4 mps 759 mmHg 46%
15:00 +29°C° 0 mm 3 mps 759 mmHg 43%
16:00 +29°C° 0 mm 3 mps 759 mmHg 47%
17:00 +28°C° 0 mm 3 mps 759 mmHg 50%
18:00 +27°C° 0 mm 2 mps 758 mmHg 54%
19:00 +26°C° 0 mm 2 mps 759 mmHg 59%
20:00 +24°C° 0 mm 2 mps 759 mmHg 63%
21:00 +21°C° 0 mm 2 mps 760 mmHg 68%
22:00 +20°C° 0 mm 2 mps 760 mmHg 70%
23:00 +20°C° 0 mm 2 mps 760 mmHg 72%

7 August, Friday

Time Temperature Precipitation Wind Pressure Humidity
00:00 +19°C° 0 mm 2 mps 760 mmHg 75%
01:00 +20°C° 0 mm 1 mps 760 mmHg 77%
02:00 +19°C° 0 mm 1 mps 760 mmHg 80%
03:00 +19°C° 0 mm 1 mps 760 mmHg 83%
04:00 +19°C° 0 mm 1 mps 760 mmHg 82%
05:00 +20°C° 0 mm 1 mps 760 mmHg 81%
06:00 +18°C° 0 mm 0 mps 760 mmHg 80%
07:00 +22°C° 0 mm 1 mps 760 mmHg 72%
08:00 +24°C° 0 mm 1 mps 760 mmHg 63%
09:00 +26°C° 0 mm 2 mps 760 mmHg 54%
10:00 +28°C° 0 mm 2 mps 760 mmHg 49%
11:00 +29°C° 0 mm 2 mps 760 mmHg 45%
12:00 +30°C° 0 mm 3 mps 760 mmHg 40%
13:00 +31°C° 0 mm 3 mps 760 mmHg 39%
14:00 +33°C° 0 mm 3 mps 760 mmHg 38%
15:00 +33°C° 0 mm 4 mps 760 mmHg 37%
16:00 +31°C° 0 mm 3 mps 760 mmHg 41%
17:00 +31°C° 0 mm 3 mps 759 mmHg 45%
18:00 +30°C° 0 mm 2 mps 759 mmHg 49%
19:00 +28°C° 0 mm 2 mps 760 mmHg 55%
20:00 +26°C° 0 mm 2 mps 760 mmHg 61%
21:00 +24°C° 0 mm 2 mps 760 mmHg 68%
22:00 +23°C° 0 mm 2 mps 760 mmHg 72%
23:00 +21°C° 0 mm 2 mps 761 mmHg 76%

8 August, Saturday

Time Temperature Precipitation Wind Pressure Humidity
00:00 +21°C° 0 mm 2 mps 761 mmHg 81%
01:00 +20°C° 0 mm 2 mps 761 mmHg 80%
02:00 +20°C° 0 mm 2 mps 761 mmHg 80%
03:00 +19°C° 0 mm 2 mps 761 mmHg 79%
04:00 +19°C° 0 mm 2 mps 761 mmHg 79%
05:00 +19°C° 0 mm 2 mps 761 mmHg 79%
06:00 +19°C° 0 mm 2 mps 762 mmHg 79%
07:00 +21°C° 0 mm 3 mps 762 mmHg 73%
08:00 +22°C° 0 mm 3 mps 762 mmHg 68%
09:00 +23°C° 0 mm 4 mps 762 mmHg 62%
10:00 +25°C° 0 mm 4 mps 763 mmHg 59%
11:00 +26°C° 0 mm 4 mps 763 mmHg 56%
12:00 +27°C° 0 mm 3 mps 763 mmHg 53%
13:00 +27°C° 0 mm 3 mps 763 mmHg 53%
14:00 +28°C° 0 mm 3 mps 763 mmHg 52%
15:00 +28°C° 0 mm 3 mps 763 mmHg 52%
16:00 +26°C° 0 mm 4 mps 763 mmHg 57%
17:00 +25°C° 0 mm 5 mps 764 mmHg 62%
18:00 +22°C° 0 mm 6 mps 764 mmHg 66%
19:00 +21°C° 0 mm 6 mps 764 mmHg 72%
20:00 +19°C° 0 mm 5 mps 764 mmHg 78%
21:00 +16°C° 0 mm 5 mps 765 mmHg 83%
22:00 +16°C° 0 mm 5 mps 765 mmHg 85%
23:00 +15°C° 0 mm 5 mps 765 mmHg 86%

9 August, Sunday

Time Temperature Precipitation Wind Pressure Humidity
00:00 +15°C° 0 mm 5 mps 765 mmHg 87%
01:00 +15°C° 0 mm 5 mps 765 mmHg 87%
02:00 +14°C° 0 mm 5 mps 765 mmHg 86%
03:00 +14°C° 0 mm 6 mps 765 mmHg 86%
04:00 +14°C° 0 mm 6 mps 765 mmHg 86%
05:00 +14°C° 0 mm 6 mps 765 mmHg 85%
06:00 +14°C° 0 mm 6 mps 765 mmHg 84%
07:00 +15°C° 0 mm 6 mps 765 mmHg 82%
08:00 +16°C° 0 mm 6 mps 765 mmHg 79%
09:00 +16°C° 0 mm 6 mps 765 mmHg 77%
10:00 +17°C° 0 mm 6 mps 765 mmHg 73%
11:00 +19°C° 0 mm 6 mps 765 mmHg 70%
12:00 +20°C° 0 mm 7 mps 765 mmHg 66%
13:00 +21°C° 0 mm 6 mps 765 mmHg 65%
14:00 +21°C° 0 mm 6 mps 764 mmHg 63%
15:00 +21°C° 0 mm 6 mps 764 mmHg 62%
16:00 +21°C° 0 mm 6 mps 764 mmHg 64%
17:00 +20°C° 0 mm 6 mps 764 mmHg 65%
18:00 +19°C° 0 mm 6 mps 764 mmHg 67%
19:00 +17°C° 0 mm 6 mps 764 mmHg 71%
20:00 +16°C° 0 mm 6 mps 764 mmHg 74%
21:00 +15°C° 0 mm 6 mps 764 mmHg 77%
22:00 +14°C° 0 mm 6 mps 764 mmHg 78%
23:00 +14°C° 0 mm 6 mps 763 mmHg 80%
Show more